Free Severe Weather Alerts by Email and Text Message   

 
Follow iAlert.com on twitter @ialertcom
Search For Active Alerts in Your Area  
  Hi Guest:  [ Sign-up / Services ] [ Login ]

Current weather by "City, St" or "zip code"  

 

Advertise Here

Hazardous Weather Conditions

No active alerts for PHOENIX, ARIZONA

Current Conditions: PHOENIX, ARIZONA

Fair


57.0 F

Last Updated on Mar 25 2017, 7:53 am MST
Humidity: 49%
Wind Speed: E 8.1 mph
Barometer 30.00 in
Dewpoint: 37.9 F
Visibility: 10.00 mi
Precip: --
Heat Index: NA
Wind Chill: 55 F
Current conditions at:

Phoenix, Phoenix-Deer Valley Municipal Airport, AZ (KDVT)

Lat: 33.69 Lon: -112.06

Local Radar Image active severe weather and emergency alerts image image weather storm and storm spotter reports image weather observation monitoring service image
Local
Radar
Active
Alerts
Storm Reports Weather
Monitoring

Weather Alert Notification Services


ialert severe weather and emergency alerts by text message and email ialert daily weather forecast by email and text message service ialert real-time weather-observation monitoring and alert notification service ialert storm report monitoring alert notification

Observation History for PHOENIX, ARIZONA


Time Wind
(mph)
Vis
(mi)
Weather Precip (in) Temperature (F) Relative
Humidity
Wind
Chill
(°F)
Heat
Index
(°F)
Pressure
Air Dwpt altimeter
(in)
sea level
(mb)
7:53 am MST E 8.1 10.00 Fair -- 57.0 37.9 49% 55 NA 30.00 1014.5
6:53 am MST N 5.8 10.00 Fair -- 54.0 37.0 53% 53 NA 30.02 1015.1
5:53 am MST N 0.0 10.00 Fair -- 53.0 37.9 57% NA NA 30.01 1014.6
4:53 am MST N 0.0 10.00 Fair -- 52.0 37.9 59% NA NA 30.00 1014.5
3:53 am MST N 4.6 10.00 Fair -- 55.0 37.9 53% 54 NA 30.02 1015.0
2:53 am MST NE 8.1 10.00 Fair -- 57.0 37.9 49% 55 NA 30.02 1015.2
1:53 am MST NE 8.1 10.00 Fair -- 60.0 37.9 44% 59 NA 30.05 1016.1
12:53 am MST N 0.0 10.00 Fair -- 56.0 39.9 55% NA NA 30.06 1016.7
11:53 pm MST NE 6.9 10.00 Fair -- 60.0 39.0 46% 59 NA 30.07 1017.0
10:53 pm MST NE 9.2 10.00 Fair -- 62.0 39.0 43% 61 NA 30.08 1017.4
9:53 pm MST NE 4.6 10.00 Fair -- 60.0 39.9 48% 60 NA 30.10 1018.0
8:53 pm MST N 0.0 10.00 Fair -- 65.0 37.0 36% NA NA 30.10 1018.0
7:53 pm MST S 3.5 10.00 Fair -- 69.0 36.0 30% NA NA 30.09 1017.7
6:53 pm MST S 4.6 10.00 Fair -- 71.0 36.0 28% NA NA 30.08 1017.3
5:53 pm MST SE 4.6 10.00 Fair -- 74.0 35.1 24% NA NA 30.07 1017.0
4:53 pm MST SW 6.9 10.00 Fair -- 74.0 34.0 23% NA NA 30.08 1017.3
3:53 pm MST SE 4.6 10.00 Fair -- 74.0 35.1 24% NA NA 30.10 1018.0
2:53 pm MST 4.6 10.00 Fair -- 73.0 35.1 25% NA NA 30.12 1018.8
1:53 pm MST W 6.9 10.00 Fair -- 73.0 33.1 23% NA NA 30.15 1019.6
12:53 pm MST NW 9.2 10.00 Fair -- 70.0 35.1 28% NA NA 30.18 1020.7
11:53 am MST 4.6 10.00 Fair -- 66.0 37.0 34% NA NA 30.20 1021.4
10:53 am MST 4.6 10.00 Fair -- 63.0 37.9 40% 64 NA 30.21 1022.1
9:53 am MST N 0.0 10.00 Fair -- 60.0 37.9 44% NA NA 30.22 1022.3
8:53 am MST N 0.0 10.00 Fair -- 58.0 37.9 48% NA NA 30.20 1021.7

Regional Weather Observation:


Glendale, Glendale Municipal Airport, AZ (KGEU)

Mostly Cloudy
57.0 F

Luke Air Force Base / Phoenix, AZ (KLUF)

Fair
55.0 F

Phoenix, Phoenix Sky Harbor International Airport, AZ (KPHX)

Mostly Cloudy
60.0 F

Goodyear Municipal, AZ (KGYR)

Mostly Cloudy
57.0 F

Buckeye Municipal Airport, AZ (KBXK)

Fair
52.0 F

Scottsdale Airport, AZ (KSDL)

Fair
57.0 F

Advertise Here


Advertise Here